Home > Weather > Cambridge > Past weeks

Flag for United Kingdom Past Weather in Cambridge, England, United Kingdom — Yesterday and Last 2 Weeks

Now
61 °F

Overcast.


Feels Like: 61 °F
Forecast: 53 / 65 °F
Wind: 15 mph from Southwest

Location: Mildenhall Royal Air Force Base

Current Time: Jul 1, 2016 at 12:15:25 AM

Latest Report: Jun 30, 2016 at 11:58 PM


Visibility: N/A

Pressure: 29.72 "Hg

Humidity: 94%

Dew Point: 59 °F

Location of CambridgeLocation

Past Weather in Cambridge — Graph

°F

Cambridge Temperature Yesterday

Maximum temperature yesterday: 70 °F (at 2:58 PM)
Minimum temperature yesterday: 53 °F (at 4:58 AM)
Average temperature yesterday: 62 °F

High & Low Weather Summary for the Past Weeks

 TemperatureHumidityPressure
High73 °F (Jun 23, 3:03 PM)100% (Jun 15, 10:58 PM)30.22 "Hg (Jun 15, 10:58 PM)
Low49 °F (Jun 28, 5:58 AM)51% (Jun 27, 5:58 PM)29.49 "Hg (Jun 15, 10:58 PM)
Average61 °F90%29.93 "Hg
* Reported Jun 15 10:58 PM — Jun 30 10:58 PM, Cambridge, Weather by CustomWeather, © 2016

Note: Actual official high and low records may vary slightly from our data, if they occured in-between our weather recording intervals... More about our weather records

Advertising

Cambridge Weather History for the Previous 24 Hours

Scroll right to see more
 ConditionsComfort  
Time TempWeatherWind HumidityBarometerVisibility
10:58 PM
Thu, Jun 30
62 °FMostly cloudy.13 mph84%29.74 "HgN/A
9:58 PM62 °FOvercast.9 mph93%29.75 "HgN/A
8:58 PM61 °FMostly cloudy.6 mph98%29.76 "HgN/A
8:00 PM61 °FCloudy.8 mph94%29.75 "HgN/A
7:58 PM61 °FLight rain. More clouds than sun.9 mph91%29.77 "HgN/A
5:58 PM67 °FBroken clouds.14 mph64%29.77 "HgN/A
4:58 PM68 °FPartly sunny.14 mph56%29.77 "HgN/A
3:58 PM69 °FBroken clouds.14 mph58%29.77 "HgN/A
2:58 PM70 °FPassing clouds.14 mph57%29.78 "HgN/A
1:58 PM67 °FScattered clouds.12 mph57%29.78 "HgN/A
12:58 PM68 °FScattered clouds.9 mph60%29.79 "HgN/A
11:58 AM67 °FBroken clouds.10 mph59%29.79 "HgN/A
10:58 AM65 °FBroken clouds.8 mph67%29.78 "HgN/A
9:58 AM63 °FBroken clouds.6 mph84%29.77 "HgN/A
8:58 AM61 °FPartly sunny.7 mph94%29.77 "HgN/A
7:58 AM60 °FPassing clouds.8 mph100%29.76 "HgN/A
6:58 AM57 °FSunny.7 mph100%29.76 "HgN/A
5:58 AM55 °FSunny.8 mph100%29.75 "HgN/A
4:58 AM53 °FClear.6 mph100%29.74 "HgN/A
3:58 AM54 °FClear.10 mph100%29.73 "HgN/A
2:58 AM55 °FPassing clouds.9 mph100%29.72 "HgN/A
1:58 AM55 °FPassing clouds.9 mph100%29.72 "HgN/A
12:58 AM55 °FPassing clouds.9 mph100%29.71 "HgN/A
Weather by CustomWeather, © 2016

See weather overviewHow to use our weather pages